Location: Newark
(44.5425°N, 10.7801°E)
Time: 02:02:37
(UTC+00:00)

N. Korean satellite - Pass Details

Date: 26 January 2020
Orbit: 456 x 505 km, 97.2° (Epoch: 25 February)

Event Time Altitude Azimuth Distance (km) Brightness Sun altitude
Rises 05:17:01 0° 10° (N) 2,540 10.2 -15.2°
Reaches altitude 10° 05:19:04 10° 8° (N) 1,665 9.2 -14.9°
Maximum altitude 05:22:38 71° 284° (WNW) 517 6.4 -14.2°
Drops below altitude 10° 05:26:14 10° 200° (SSW) 1,678 9.2 -13.6°
Sets 05:28:18 0° 198° (SSW) 2,563 10.2 -13.3°
